sat.trackr.live / text

‹ back to catalog

STARLINK-30184

NORAD 57310 · 2023-096W

PAYLOAD ACTIVE UNKNOWN

§ Identity

Operator
Country
US
Launch date
2023-07-10
Launch site
AFETR
Launch vehicle
Mass (kg)
RCS (m²)

Purposes: comms

External: N2YO · Heavens-Above · Gunter

§ Orbital elements

Epoch: 2026-09-20T00:53:13.988544Z

Period
94.27 min
Inclination
43.0018°
Eccentricity
0.0001345
Mean motion
15.27579433 rev/d
Perigee alt
482.1 km
Apogee alt
484.0 km
Semi-major
6,861.2 km
B*
2.4126e-5
RAAN
176.8967°
Arg perigee
262.7150°
Mean anomaly
97.3549°
Rev number
17,677

§ Raw data

STARLINK-301841 57310U 23096W   26263.03696746  .00000402  00000+0  24126-4 0  99902 57310  43.0018 176.8967 0001345 262.7150  97.3549 15.27579433176775

JSON: /api/v1/satellites/57310 · /tle

For live sub-satellite position, see the globe view (requires WebGL).

§ Visibility from observer

Set your observer location to see the next 7 days of passes ≥ 10°. The values pass through the URL so the page stays shareable.

No JS? Fill the form by hand. The geolocation button needs JavaScript.